[[{"header":{"parameterUnit":"m.s-1","parameterCategory":1,"la1":30.2991,"la2":30.254,"lo1":-89.0895,"lo2":-89.0444,"dy":0.0017,"dx":0.0017,"nx":28,"ny":28,"refTime":"2025-08-28T09:00:00:Z","depth":0,"parameterNumber":2,"parameterNumberName":"U-component_of_WINDS"},"data":[0,0,0,0,0,0,0,0,0,0,0,0,0,0,0,0,0,0,0,0,0,0,0,0,0,0,0,0,0,0,0,0,0,0,0,0,0,0,0,0,0,0,0,0,0,0,0,0,0,0,0,0,0,0,0,0,0,0,-0.1577,-0.1578,0,-0.1616,-0.1617,-0.1617,-0.165,-0.165,-0.1651,-0.1651,-0.1691,-0.1692,-0.1693,0,0,0,0,0,0,0,0,0,0,0,0,0,-0.1532,-0.1532,-0.1577,-0.1578,-0.1578,-0.1616,-0.1617,-0.1617,-0.165,-0.165,-0.1651,-0.1651,-0.1691,-0.1692,-0.1693,0,0,0,0,0,0,0,0,0,0,0,0,0,-0.1559,-0.1532,-0.1577,-0.1599,-0.1601,-0.1616,-0.1617,-0.1617,-0.165,-0.165,-0.1651,-0.1651,-0.1691,-0.1692,-0.1693,-0.1689,0,0,-0.1696,-0.1697,0,0,0,0,0,0,0,0,-0.1557,-0.1561,-0.1595,-0.1598,-0.16,-0.1629,-0.1615,-0.1642,-0.165,-0.1631,-0.1651,-0.1652,-0.167,-0.1673,-0.1679,-0.1691,-0.1693,-0.1697,-0.1697,-0.1698,-0.1698,0,0,0,0,0,0,0,-0.1556,-0.1559,-0.1593,-0.1596,-0.1599,-0.1607,-0.1612,-0.1621,-0.1647,-0.1633,-0.1635,-0.164,-0.1672,-0.1678,-0.168,-0.1694,-0.1696,-0.1697,-0.1698,-0.1699,-0.1705,-0.1704,0,0,0,0,0,0,-0.155,-0.1557,-0.1591,-0.1594,-0.158,-0.1607,-0.1613,-0.1619,-0.1647,-0.1652,-0.1639,-0.1641,-0.1676,-0.1679,-0.1682,-0.168,-0.1698,-0.1699,-0.1699,-0.1705,-0.1705,-0.1704,0,0,0,0,0,0,-0.1549,-0.1553,-0.159,-0.1576,-0.1582,-0.1608,-0.1615,-0.162,-0.1626,-0.1652,-0.1657,-0.1641,-0.1676,-0.168,-0.1687,-0.1682,-0.1699,-0.17,-0.1706,-0.1705,-0.1704,-0.1675,0,0,0,0,0,0,-0.1548,-0.1552,-0.1551,-0.1576,-0.1582,-0.1594,-0.1614,-0.162,-0.1628,-0.1631,-0.1655,-0.1659,-0.1677,-0.1685,-0.1688,-0.1683,-0.1701,-0.1706,-0.1705,-0.1705,-0.1677,-0.1673,-0.167,0,0,0,0,0,-0.1546,-0.1541,-0.1551,-0.1555,-0.1581,-0.1594,-0.1598,-0.1618,-0.1627,-0.1626,-0.1643,-0.1659,-0.1681,-0.1686,-0.1689,-0.1685,-0.1707,-0.1706,-0.1705,-0.1678,-0.1674,-0.167,0,0,0,0,0,0,-0.1515,-0.1545,-0.1556,-0.1559,-0.1574,-0.1599,-0.1599,-0.1613,-0.1625,-0.1628,-0.1653,-0.1658,-0.1662,-0.1674,-0.1678,-0.1683,-0.1696,-0.1696,-0.1675,-0.1671,-0.1668,-0.1665,-0.1702,0,0,0,0,0,-0.1509,-0.1516,-0.1542,-0.1543,-0.1549,-0.1573,-0.1579,-0.1593,-0.161,-0.1616,-0.1633,-0.1648,-0.1659,-0.1666,-0.1677,-0.1678,-0.1684,-0.1677,-0.1674,-0.1671,-0.1671,-0.1672,-0.1669,-0.17,-0.17,-0.17,0,0,-0.1496,-0.1513,-0.1516,-0.1537,-0.155,-0.1557,-0.1578,-0.1585,-0.1591,-0.1617,-0.1625,-0.1638,-0.1657,-0.1661,-0.1663,-0.1671,-0.1663,-0.167,-0.1667,-0.1668,-0.1671,-0.1668,-0.1665,-0.17,-0.17,-0.17,0,0,-0.1476,-0.1489,-0.1491,-0.1504,-0.1523,-0.1539,-0.1539,-0.1563,-0.1572,-0.158,-0.16,-0.1608,-0.1626,-0.1638,-0.1647,-0.1631,-0.1646,-0.1634,-0.1619,-0.162,-0.1618,-0.1616,-0.161,-0.1608,-0.1634,-0.1634,-0.1634,0,-0.1457,-0.1469,-0.1491,-0.1497,-0.1505,-0.1529,-0.1532,-0.1543,-0.1565,-0.157,-0.1578,-0.1601,-0.1615,-0.1623,-0.1619,-0.1625,-0.1627,-0.1632,-0.1616,-0.1614,-0.1613,-0.1608,-0.1606,-0.1632,-0.1632,-0.1632,-0.1633,0,-0.1446,-0.1454,-0.1453,-0.1474,-0.1482,-0.1486,-0.1508,-0.1514,-0.1528,-0.1542,-0.155,-0.1568,-0.1584,-0.1586,-0.16,-0.1596,-0.16,-0.1612,-0.1626,-0.1608,-0.1604,-0.1602,-0.163,-0.163,-0.1631,-0.1631,0,0,-0.1408,-0.144,-0.144,-0.1449,-0.1472,-0.1479,-0.1484,-0.1499,-0.1504,-0.1518,-0.1523,-0.1537,-0.1549,-0.1558,-0.1573,-0.1574,-0.1561,-0.1586,-0.1587,-0.1581,-0.1558,-0.155,-0.1547,-0.1571,-0.1571,-0.1571,-0.1557,0,-0.1392,-0.1403,-0.1422,-0.1427,-0.1435,-0.1457,-0.1462,-0.1476,-0.149,-0.1499,-0.1514,-0.1524,-0.1538,-0.1544,-0.1546,-0.1562,-0.1557,-0.1564,-0.1577,-0.1577,-0.1572,-0.1545,-0.1536,-0.1522,-0.1555,-0.1555,-0.1555,0,-0.1375,-0.1388,-0.1393,-0.1416,-0.142,-0.1423,-0.1439,-0.1447,-0.1464,-0.1474,-0.1484,-0.1501,-0.1507,-0.152,-0.153,-0.1534,-0.154,-0.1549,-0.1549,-0.1551,-0.1565,-0.1547,-0.1518,-0.1516,-0.1553,-0.1553,-0.1553,0,-0.1348,-0.1366,-0.1372,-0.1379,-0.1406,-0.1408,-0.1419,-0.1436,-0.1444,-0.1457,-0.1462,-0.1476,-0.1484,-0.1494,-0.1514,-0.1521,-0.1522,-0.1536,-0.153,-0.153,-0.153,-0.153,-0.1502,-0.1533,-0.1533,-0.1533,-0.1533,0,-0.1329,-0.1331,-0.136,-0.1363,-0.1367,-0.1389,-0.1392,-0.1405,-0.142,-0.1427,-0.1447,-0.1453,-0.1478,-0.1487,-0.1502,-0.1508,-0.1511,-0.152,-0.1524,-0.1518,-0.1517,-0.1523,-0.1525,-0.1533,-0.1533,-0.1533,-0.1533,0,-0.1299,-0.1318,-0.1326,-0.135,-0.1356,-0.1357,-0.1378,-0.1382,-0.1397,-0.1405,-0.1408,-0.1431,-0.1443,-0.1463,-0.148,-0.1491,-0.1493,-0.15,-0.1488,-0.149,-0.1484,-0.1484,-0.1459,-0.1457,-0.1489,-0.1489,-0.1488,0,-0.1285,-0.1288,-0.1312,-0.1318,-0.1328,-0.1337,-0.1345,-0.1366,-0.1374,-0.1393,-0.1395,-0.1408,-0.1419,-0.1436,-0.1455,-0.1468,-0.1476,-0.1466,-0.1478,-0.1472,-0.1476,-0.1476,-0.1476,-0.1463,-0.1463,-0.1462,-0.1462,0,-0.126,-0.1269,-0.128,-0.1293,-0.1302,-0.1314,-0.1327,-0.1331,-0.1355,-0.1363,-0.1374,-0.1383,-0.14,-0.1413,-0.1429,-0.144,-0.1455,-0.1458,-0.1458,-0.1452,-0.1445,-0.1449,-0.1481,-0.1459,-0.1459,-0.1459,-0.146,-0.146,-0.1238,-0.1241,-0.1259,-0.127,-0.1282,-0.1293,-0.1299,-0.1314,-0.1324,-0.134,-0.1352,-0.1363,-0.138,-0.1402,-0.1413,-0.1422,-0.1429,-0.1428,-0.1428,-0.1427,-0.1425,-0.1443,-0.1425,-0.1425,-0.1425,-0.1425,-0.1425,0,-0.1214,-0.1226,-0.1236,-0.1254,-0.1262,-0.1275,-0.129,-0.1297,-0.1306,-0.132,-0.1331,-0.1344,-0.1356,-0.1376,-0.1389,-0.1393,-0.14,-0.1396,-0.1396,-0.1398,-0.1418,-0.1417,-0.139,-0.139,-0.139,-0.139,-0.139,-0.139,-0.1203,-0.1209,-0.122,-0.1233,-0.1245,-0.1255,-0.1263,-0.1274,-0.1285,-0.1299,-0.1309,-0.1322,-0.1338,-0.1353,-0.1365,-0.137,-0.1375,-0.1368,-0.1376,-0.1394,-0.1397,-0.14,-0.14,-0.1369,-0.1369,-0.1356,-0.1356,-0.1355]},{"header":{"parameterUnit":"m.s-1","parameterCategory":1,"la1":30.2991,"la2":30.254,"lo1":-89.0895,"lo2":-89.0444,"dy":0.0017,"dx":0.0017,"nx":28,"ny":28,"refTime":"2025-08-28T09:00:00:Z","depth":0,"parameterNumber":3,"parameterNumberName":"V-component_of_WINDS"},"data":[0,0,0,0,0,0,0,0,0,0,0,0,0,0,0,0,0,0,0,0,0,0,0,0,0,0,0,0,0,0,0,0,0,0,0,0,0,0,0,0,0,0,0,0,0,0,0,0,0,0,0,0,0,0,0,0,0,0,-0.2441,-0.2442,0,-0.2525,-0.2526,-0.2527,-0.2593,-0.2594,-0.2594,-0.2595,-0.2683,-0.2684,-0.2686,0,0,0,0,0,0,0,0,0,0,0,0,0,-0.2338,-0.234,-0.2441,-0.2442,-0.2443,-0.2525,-0.2526,-0.2527,-0.2593,-0.2594,-0.2595,-0.2595,-0.2682,-0.2684,-0.2686,0,0,0,0,0,0,0,0,0,0,0,0,0,-0.2399,-0.234,-0.2441,-0.2485,-0.249,-0.2525,-0.2526,-0.2528,-0.2593,-0.2594,-0.2595,-0.2596,-0.2682,-0.2684,-0.2687,-0.2684,0,0,-0.2695,-0.2696,0,0,0,0,0,0,0,0,-0.2395,-0.2402,-0.2478,-0.2482,-0.2488,-0.255,-0.2522,-0.258,-0.2593,-0.2554,-0.2595,-0.2596,-0.2638,-0.2644,-0.2658,-0.2688,-0.2692,-0.2695,-0.2696,-0.2698,-0.2698,0,0,0,0,0,0,0,-0.2391,-0.2399,-0.2474,-0.2479,-0.2485,-0.2502,-0.2512,-0.2534,-0.259,-0.2557,-0.2562,-0.2572,-0.2641,-0.2655,-0.266,-0.2693,-0.2695,-0.2697,-0.2699,-0.27,-0.2726,-0.2725,0,0,0,0,0,0,-0.2379,-0.2395,-0.2472,-0.2477,-0.2443,-0.2503,-0.2514,-0.2529,-0.259,-0.26,-0.2571,-0.2574,-0.265,-0.2657,-0.2664,-0.2665,-0.2698,-0.27,-0.2702,-0.2727,-0.2726,-0.2725,0,0,0,0,0,0,-0.2377,-0.2386,-0.2468,-0.2437,-0.2449,-0.2504,-0.252,-0.253,-0.2545,-0.2599,-0.261,-0.2575,-0.2651,-0.266,-0.2678,-0.2669,-0.2701,-0.2704,-0.2728,-0.2727,-0.2725,-0.2666,0,0,0,0,0,0,-0.2374,-0.2384,-0.2383,-0.2437,-0.2451,-0.248,-0.252,-0.2531,-0.2549,-0.2554,-0.2606,-0.2616,-0.2653,-0.2674,-0.2681,-0.2673,-0.2706,-0.2729,-0.2727,-0.2726,-0.2669,-0.2663,-0.2658,0,0,0,0,0,-0.237,-0.2363,-0.2383,-0.2392,-0.245,-0.248,-0.2488,-0.253,-0.2548,-0.2547,-0.2583,-0.2614,-0.2669,-0.2675,-0.2684,-0.2676,-0.273,-0.2728,-0.2726,-0.2672,-0.2664,-0.2658,0,0,0,0,0,0,-0.2307,-0.2371,-0.2393,-0.2404,-0.2436,-0.2491,-0.2492,-0.2521,-0.2548,-0.2553,-0.2604,-0.2616,-0.2628,-0.2655,-0.2661,-0.2677,-0.2703,-0.2703,-0.2659,-0.2653,-0.2647,-0.264,-0.2708,0,0,0,0,0,-0.2294,-0.2313,-0.2368,-0.2372,-0.2387,-0.2436,-0.2451,-0.2481,-0.2516,-0.253,-0.2567,-0.26,-0.2626,-0.2641,-0.2667,-0.2674,-0.2686,-0.2673,-0.2667,-0.2662,-0.2661,-0.2667,-0.2662,-0.2718,-0.2718,-0.2718,0,0,-0.2268,-0.2306,-0.2314,-0.236,-0.2388,-0.2407,-0.2447,-0.2465,-0.2479,-0.2533,-0.2552,-0.2581,-0.2622,-0.2634,-0.2642,-0.2657,-0.2648,-0.266,-0.2655,-0.2657,-0.2665,-0.2659,-0.2654,-0.2717,-0.2717,-0.2718,0,0,-0.223,-0.226,-0.2267,-0.2295,-0.2337,-0.237,-0.2372,-0.2423,-0.2444,-0.2464,-0.2505,-0.2524,-0.2565,-0.2593,-0.2612,-0.2586,-0.2616,-0.2593,-0.2563,-0.2569,-0.2564,-0.256,-0.2551,-0.2547,-0.2592,-0.2592,-0.2592,0,-0.2192,-0.2221,-0.2267,-0.2282,-0.2301,-0.2351,-0.2359,-0.2384,-0.2433,-0.2445,-0.2461,-0.2515,-0.2546,-0.2566,-0.256,-0.2574,-0.2578,-0.2587,-0.2561,-0.2558,-0.2555,-0.2547,-0.2543,-0.2589,-0.2589,-0.259,-0.259,0,-0.2173,-0.2192,-0.2193,-0.2239,-0.2258,-0.2269,-0.2317,-0.2332,-0.2361,-0.2392,-0.2413,-0.2453,-0.2488,-0.2495,-0.2523,-0.2519,-0.2527,-0.2551,-0.2578,-0.2546,-0.2539,-0.2536,-0.2585,-0.2586,-0.2587,-0.2587,0,0,-0.2096,-0.2168,-0.2167,-0.2189,-0.224,-0.2256,-0.2271,-0.2305,-0.2316,-0.2349,-0.2362,-0.2397,-0.242,-0.2442,-0.2474,-0.2479,-0.2456,-0.2503,-0.2505,-0.2493,-0.2455,-0.2436,-0.2432,-0.2477,-0.2476,-0.2476,-0.2452,0,-0.2066,-0.2093,-0.2135,-0.2149,-0.2168,-0.2217,-0.2229,-0.2262,-0.2293,-0.2314,-0.2348,-0.2372,-0.24,-0.2414,-0.2421,-0.2457,-0.2449,-0.246,-0.249,-0.2491,-0.2477,-0.2428,-0.2408,-0.2383,-0.2449,-0.2449,-0.2449,0,-0.2034,-0.2064,-0.2079,-0.213,-0.2139,-0.215,-0.2185,-0.2204,-0.2243,-0.2265,-0.229,-0.2325,-0.2344,-0.2369,-0.2395,-0.2401,-0.2417,-0.2436,-0.2437,-0.2441,-0.2467,-0.2431,-0.2377,-0.2373,-0.2445,-0.2445,-0.2445,0,-0.1976,-0.202,-0.2036,-0.2053,-0.2112,-0.2118,-0.2144,-0.2184,-0.2202,-0.2233,-0.2245,-0.2278,-0.2296,-0.2321,-0.2364,-0.2379,-0.2386,-0.2415,-0.2405,-0.2404,-0.2404,-0.2403,-0.2351,-0.2414,-0.2414,-0.2414,-0.2414,0,-0.1938,-0.1946,-0.2011,-0.202,-0.203,-0.2079,-0.2088,-0.2118,-0.2154,-0.217,-0.2214,-0.2229,-0.2285,-0.2307,-0.2341,-0.2358,-0.2366,-0.2384,-0.2393,-0.238,-0.2378,-0.239,-0.2393,-0.2413,-0.2414,-0.2414,-0.2414,0,-0.1875,-0.1919,-0.1939,-0.1994,-0.2008,-0.2013,-0.206,-0.2072,-0.2105,-0.2125,-0.2133,-0.2186,-0.2214,-0.2259,-0.2301,-0.2324,-0.2334,-0.2349,-0.2321,-0.2326,-0.2314,-0.2314,-0.2268,-0.2264,-0.2329,-0.2329,-0.2328,0,-0.1847,-0.1854,-0.191,-0.1924,-0.1948,-0.197,-0.1989,-0.2038,-0.2056,-0.2101,-0.2107,-0.2138,-0.2166,-0.2208,-0.225,-0.2283,-0.2299,-0.228,-0.2304,-0.2291,-0.2298,-0.2297,-0.2298,-0.2274,-0.2273,-0.2273,-0.2272,0,-0.1793,-0.1815,-0.184,-0.1873,-0.1894,-0.1923,-0.1954,-0.1963,-0.2019,-0.2037,-0.2066,-0.2087,-0.2129,-0.216,-0.2198,-0.2225,-0.2258,-0.2264,-0.2264,-0.225,-0.2233,-0.2242,-0.2305,-0.2265,-0.2266,-0.2266,-0.2267,-0.2267,-0.1747,-0.1756,-0.1797,-0.1824,-0.1852,-0.188,-0.1893,-0.1929,-0.1954,-0.1992,-0.2019,-0.2046,-0.2087,-0.2141,-0.2167,-0.2189,-0.2204,-0.2203,-0.2203,-0.2202,-0.2197,-0.223,-0.2196,-0.2196,-0.2197,-0.2197,-0.2197,0,-0.1696,-0.1725,-0.1749,-0.1791,-0.1812,-0.1841,-0.1877,-0.1893,-0.1916,-0.1951,-0.1977,-0.2011,-0.2041,-0.2086,-0.212,-0.2129,-0.2145,-0.2137,-0.2136,-0.2142,-0.2182,-0.2178,-0.2123,-0.2123,-0.2123,-0.2123,-0.2123,-0.2123,-0.1671,-0.1688,-0.1714,-0.1746,-0.1775,-0.1801,-0.182,-0.1846,-0.1874,-0.1909,-0.1934,-0.1964,-0.2003,-0.204,-0.207,-0.2082,-0.2093,-0.2079,-0.2096,-0.2132,-0.2139,-0.2146,-0.2143,-0.2081,-0.2081,-0.2055,-0.2055,-0.2054]}]]